Regional Weather Roundup
Issued by NWS

Home | Current Version | Previous Version | Graphics & Text | Print | Product List | Glossary On
Versions: 1 2 3 4 5 6 7 8 9 10 11 12 13 14 15 16 17 18 19 20 21 22 23 24 25 26 27 28
000
ASUS45 KSLC 221010
RWRUT

UTAH REGIONAL WEATHER ROUNDUP
NATIONAL WEATHER SERVICE SALT LAKE CITY UT
400 AM MDT MON MAY 22 2017

UTZ001>011-023>025-221100-

NORTHERN UTAH

CITY           SKY/WX    TMP DP  RH WIND       PRES   REMARKS
BRIGHAM CITY   CLEAR     50  44  79 CALM      30.25S
HILL AFB       CLEAR     48  40  74 E13       30.25F HAZE
LOGAN          CLEAR     47  41  80 W3        30.26S
OGDEN          CLEAR     47  41  80 S8        30.24F
SALT LAKE CITY PTCLDY    51  43  74 SE6       30.24S
TOOELE VALLEY  CLEAR     43  41  93 S7        30.24F
WENDOVER       CLEAR     53  43  68 CALM      30.24S
HEBER CITY     CLEAR     37  36  93 CALM      30.29F
WEST JORDAN    CLEAR     50  48  93 CALM      30.25S

$$

UTZ011>015-024>027-221100-

CENTRAL/NORTHEAST UTAH

CITY           SKY/WX    TMP DP  RH WIND       PRES   REMARKS
PROVO AIRPORT  CLEAR     46  42  86 CALM      30.26F
MOAB/CANYONLAN CLEAR     44  41  89 W5        30.19S
DELTA          CLEAR     45  39  81 N7        30.24F
PRICE          CLEAR     42  37  82 N7        30.25F
ROOSEVELT      CLEAR     43  37  81 W8        30.27F
VERNAL         CLEAR     42  36  79 NW3       30.26F

$$

UTZ013>016-019>022-027-221100-

SOUTHERN UTAH

CITY           SKY/WX    TMP DP  RH WIND       PRES   REMARKS
BRYCE CANYON   CLEAR     31  29  92 CALM      30.32S
CEDAR CITY     CLEAR     43  35  73 CALM      30.25R
MILFORD        CLEAR     44  37  76 CALM      30.25R
ST GEORGE      SUNNY     70  39  32 NE6       30.09R
HANKSVILLE     CLEAR     45  37  76 CALM      30.23S
BLANDING       CLEAR     46  33  61 CALM      30.27S

$$

REGIONAL REPORTS     COLORADO/ARIZONA

CITY           SKY/WX    TMP DP  RH WIND       PRES   REMARKS
CRAIG, CO      CLEAR     33  30  88 CALM      30.29R
GRAND JUNCTION CLEAR     48  41  76 NE3       30.21R
RIFLE, CO      CLEAR     45  41  86 CALM      30.24R
MONTROSE, CO   CLOUDY    45  41  86 SE3       30.25S
CORTEZ, CO     CLEAR     39  36  89 E7        30.20F WCI  34
COLORADO CITY    N/A     61  37  41 NE8       30.20S
PAGE, AZ       CLEAR     58  41  53 CALM      30.15S
GRAND CANYON   CLEAR     36  31  82 CALM      30.25S
KINGMAN, AZ    CLEAR     65  25  22 MISG      30.02S
FLAGSTAFF, AZ  CLEAR     37  27  67 CALM      30.25F

$$

REGIONAL REPORTS    NEVADA/IDAHO/WYOMING

CITY           SKY/WX    TMP DP  RH WIND       PRES   REMARKS
LAS VEGAS, NV  PTCLDY    79  31  17 NE15      29.97R
ELY, NY        CLEAR     34  30  85 S9        30.31S WCI  27
ELKO, NV       PTCLDY    44  39  82 SW5       30.27S
POCATELLO, ID  CLEAR     49  43  80 S8        30.25S
BURLEY, ID     CLEAR     50  42  74 SW10      30.23S
FORT BRIDGER,    N/A     37  37 100 W9        30.33F WCI  31
EVANSTON, WY   CLEAR     39  38  96 SW7       30.32S WCI  34
ROCK SPRINGS,  CLEAR     38  34  85 SW7       30.30F WCI  33
KEMMERER, WY     N/A     34  32  93 NW9       30.33S WCI  26

$$




USA.gov is the U.S. government's official web portal to all federal, state and local government web resources and services.